SAS14A ENZV-ESSA

Flight info

Callsign SAS14A
Flight time 1h 9m
Altitude 35000
Route UPLEV DCT OSKOM DCT XIDMI DCT ELTOK
Aircraft A320/M-SDE3FGHIJ1RWXYZ/ALB1

Departure

Time 2026-04-22 19:11
Airport Stavanger Airport, Sola (ENZV)

Arrival

Time 2026-04-22 20:20
Airport Stockholm-Arlanda Airport (ESSA)
Time Latitude Longitude Altitude Speed Heading
2026-04-22 18:39 58.88087 5.62971 25 ft 0 kts 314°
2026-04-22 19:02 58.88082 5.62980 25 ft 3 kts 314°
2026-04-22 19:02 58.88070 5.63003 26 ft 2 kts 314°
2026-04-22 19:02 58.88060 5.63024 28 ft 2 kts 314°
2026-04-22 19:03 58.88049 5.63046 27 ft 2 kts 297°
2026-04-22 19:03 58.88043 5.63077 27 ft 2 kts 263°
2026-04-22 19:03 58.88047 5.63108 27 ft 2 kts 250°
2026-04-22 19:03 58.88055 5.63136 28 ft 2 kts 218°
2026-04-22 19:04 58.88057 5.63139 28 ft 0 kts 218°
2026-04-22 19:05 58.88053 5.63134 27 ft 3 kts 217°
2026-04-22 19:05 58.88015 5.63105 28 ft 7 kts 174°
2026-04-22 19:05 58.87972 5.63167 28 ft 9 kts 127°
2026-04-22 19:06 58.87950 5.63294 30 ft 10 kts 107°
2026-04-22 19:06 58.87899 5.63331 31 ft 9 kts 197°
2026-04-22 19:06 58.87830 5.63290 31 ft 11 kts 181°
2026-04-22 19:07 58.87656 5.63295 31 ft 15 kts 178°
2026-04-22 19:07 58.87566 5.63298 31 ft 8 kts 179°
2026-04-22 19:07 58.87500 5.63299 31 ft 11 kts 180°
2026-04-22 19:07 58.87416 5.63301 31 ft 13 kts 179°
2026-04-22 19:08 58.87320 5.63305 31 ft 15 kts 178°
2026-04-22 19:08 58.87208 5.63307 32 ft 16 kts 179°
2026-04-22 19:08 58.87098 5.63311 32 ft 13 kts 179°
2026-04-22 19:08 58.87012 5.63359 32 ft 12 kts 150°
2026-04-22 19:09 58.86953 5.63489 33 ft 13 kts 101°
2026-04-22 19:09 58.86950 5.63664 37 ft 13 kts 89°
2026-04-22 19:09 58.86996 5.63799 36 ft 15 kts
2026-04-22 19:09 58.87013 5.63800 36 ft 0 kts
2026-04-22 19:10 58.87016 5.63800 36 ft 5 kts
2026-04-22 19:10 58.87307 5.63794 34 ft 77 kts 359°
2026-04-22 19:10 58.88038 5.63773 32 ft 130 kts 359°
2026-04-22 19:10 58.89008 5.63685 436 ft 138 kts 354°
2026-04-22 19:11 58.89968 5.63653 1045 ft 139 kts 357°
2026-04-22 19:11 58.90942 5.63640 1588 ft 145 kts 358°
2026-04-22 19:11 58.92025 5.63631 1879 ft 166 kts 358°
2026-04-22 19:11 58.93278 5.63595 2125 ft 195 kts 358°
2026-04-22 19:12 58.94716 5.63548 2537 ft 219 kts 358°
2026-04-22 19:12 58.96305 5.63498 3152 ft 234 kts 358°
2026-04-22 19:12 58.97946 5.63454 4096 ft 238 kts 358°
2026-04-22 19:12 58.99618 5.63436 5017 ft 243 kts
2026-04-22 19:13 59.01269 5.64310 5874 ft 253 kts 26°
2026-04-22 19:13 59.02573 5.66689 6723 ft 268 kts 54°
2026-04-22 19:13 59.03149 5.70210 7523 ft 282 kts 78°
2026-04-22 19:13 59.03403 5.74004 8387 ft 285 kts 79°
2026-04-22 19:14 59.03641 5.77841 9250 ft 287 kts 80°
2026-04-22 19:14 59.03875 5.81712 10088 ft 291 kts 80°
2026-04-22 19:14 59.04118 5.85657 10704 ft 302 kts 80°
2026-04-22 19:14 59.04385 5.89865 10931 ft 325 kts 80°
2026-04-22 19:15 59.04571 5.92785 11230 ft 333 kts 80°
2026-04-22 19:15 59.04948 5.98820 12130 ft 339 kts 81°
2026-04-22 19:15 59.05231 6.03401 12871 ft 343 kts 81°
2026-04-22 19:15 59.05519 6.08024 13603 ft 346 kts 81°
2026-04-22 19:16 59.05809 6.12686 14306 ft 349 kts 81°
2026-04-22 19:16 59.06100 6.17383 14947 ft 352 kts 81°
2026-04-22 19:16 59.06392 6.22130 15596 ft 355 kts 81°
2026-04-22 19:16 59.06685 6.26915 16224 ft 358 kts 81°
2026-04-22 19:17 59.06976 6.31727 16857 ft 360 kts 82°
2026-04-22 19:17 59.07270 6.36588 17497 ft 363 kts 82°
2026-04-22 19:17 59.07564 6.41482 18132 ft 366 kts 82°
2026-04-22 19:17 59.07856 6.46411 18764 ft 369 kts 82°
2026-04-22 19:18 59.08147 6.51380 19342 ft 371 kts 83°
2026-04-22 19:18 59.08437 6.56375 19952 ft 373 kts 83°
2026-04-22 19:18 59.08728 6.61406 20568 ft 375 kts 83°
2026-04-22 19:18 59.09018 6.66459 21165 ft 377 kts 83°
2026-04-22 19:19 59.09309 6.71536 21728 ft 379 kts 83°
2026-04-22 19:19 59.09599 6.76653 22290 ft 382 kts 84°
2026-04-22 19:19 59.09891 6.81808 22857 ft 384 kts 84°
2026-04-22 19:19 59.10184 6.86985 23429 ft 386 kts 83°
2026-04-22 19:20 59.10554 6.92169 23973 ft 389 kts 81°
2026-04-22 19:20 59.11009 6.97369 24429 ft 391 kts 80°
2026-04-22 19:20 59.11506 7.02589 24876 ft 393 kts 79°
2026-04-22 19:20 59.12013 7.07825 25307 ft 395 kts 79°
2026-04-22 19:21 59.12511 7.13101 25735 ft 397 kts 80°
2026-04-22 19:21 59.12994 7.18404 26161 ft 399 kts 80°
2026-04-22 19:21 59.13470 7.23758 26577 ft 402 kts 80°
2026-04-22 19:21 59.13937 7.29131 26984 ft 404 kts 81°
2026-04-22 19:22 59.14398 7.34522 27380 ft 406 kts 81°
2026-04-22 19:22 59.14859 7.39974 27769 ft 408 kts 81°
2026-04-22 19:22 59.15319 7.45440 28150 ft 410 kts 81°
2026-04-22 19:22 59.15840 7.50920 28537 ft 413 kts 76°
2026-04-22 19:23 59.16620 7.56319 28932 ft 415 kts 74°
2026-04-22 19:23 59.17413 7.61737 29301 ft 417 kts 74°
2026-04-22 19:23 59.18195 7.67117 29678 ft 419 kts 74°
2026-04-22 19:23 59.18989 7.72604 30055 ft 421 kts 74°
2026-04-22 19:24 59.19782 7.78120 30421 ft 423 kts 74°
2026-04-22 19:24 59.20574 7.83663 30736 ft 425 kts 74°
2026-04-22 19:24 59.21367 7.89231 31060 ft 427 kts 75°
2026-04-22 19:24 59.22161 7.94827 31390 ft 428 kts 75°
2026-04-22 19:25 59.22947 8.00400 31857 ft 426 kts 75°
2026-04-22 19:25 59.23730 8.05970 32337 ft 423 kts 75°
2026-04-22 19:25 59.24505 8.11495 32822 ft 421 kts 75°
2026-04-22 19:25 59.25273 8.16994 33305 ft 418 kts 75°
2026-04-22 19:26 59.26034 8.22468 33777 ft 416 kts 75°
2026-04-22 19:26 59.26791 8.27913 34258 ft 414 kts 75°
2026-04-22 19:26 59.27544 8.33332 34683 ft 412 kts 75°
2026-04-22 19:26 59.28292 8.38733 35062 ft 411 kts 75°
2026-04-22 19:27 59.29034 8.44110 35270 ft 411 kts 76°
2026-04-22 19:27 59.30504 8.54876 35307 ft 407 kts 76°
2026-04-22 19:28 59.31957 8.65579 35306 ft 407 kts 76°
2026-04-22 19:28 59.33406 8.76289 35298 ft 407 kts 76°
2026-04-22 19:29 59.34847 8.87012 35296 ft 407 kts 76°
2026-04-22 19:29 59.36281 8.97741 35292 ft 407 kts 76°
2026-04-22 19:30 59.37477 9.06745 35284 ft 407 kts 76°
2026-04-22 19:30 59.39113 9.19256 35286 ft 407 kts 76°
2026-04-22 19:31 59.40511 9.30040 35283 ft 408 kts 76°
2026-04-22 19:31 59.41904 9.40826 35271 ft 408 kts 76°
2026-04-22 19:32 59.43292 9.51627 35275 ft 408 kts 76°
2026-04-22 19:32 59.44670 9.62451 35267 ft 408 kts 76°
2026-04-22 19:33 59.46041 9.73303 35256 ft 409 kts 76°
2026-04-22 19:33 59.47412 9.84158 35252 ft 409 kts 76°
2026-04-22 19:34 59.48771 9.95023 35248 ft 409 kts 76°
2026-04-22 19:34 59.50121 10.05910 35240 ft 409 kts 76°
2026-04-22 19:35 59.51458 10.16799 35238 ft 410 kts 76°
2026-04-22 19:35 59.52565 10.25875 35233 ft 410 kts 76°
2026-04-22 19:36 59.54113 10.38646 35234 ft 410 kts 76°
2026-04-22 19:36 59.55425 10.49566 35237 ft 410 kts 76°
2026-04-22 19:37 59.56722 10.60507 35241 ft 409 kts 76°
2026-04-22 19:37 59.58021 10.71443 35240 ft 409 kts 75°
2026-04-22 19:38 59.59303 10.82366 35245 ft 408 kts 75°
2026-04-22 19:38 59.60579 10.93287 35251 ft 408 kts 75°
2026-04-22 19:39 59.61840 11.04200 35251 ft 407 kts 75°
2026-04-22 19:39 59.63079 11.15045 35254 ft 407 kts 75°
2026-04-22 19:40 59.64313 11.25951 35259 ft 406 kts 75°
2026-04-22 19:40 59.65545 11.36847 35255 ft 406 kts 75°
2026-04-22 19:41 59.66766 11.47737 35254 ft 405 kts 75°
2026-04-22 19:41 59.67972 11.58631 35253 ft 405 kts 75°
2026-04-22 19:42 59.68976 11.67752 35251 ft 405 kts 75°
2026-04-22 19:42 59.70163 11.78646 35249 ft 404 kts 75°
2026-04-22 19:43 59.71838 11.94951 35243 ft 407 kts 81°
2026-04-22 19:43 59.72291 12.06212 35240 ft 408 kts 82°
2026-04-22 19:44 59.72721 12.17336 35239 ft 408 kts 82°
2026-04-22 19:44 59.73150 12.28551 35232 ft 408 kts 82°
2026-04-22 19:45 59.73575 12.39785 35235 ft 409 kts 82°
2026-04-22 19:45 59.73987 12.51013 35229 ft 409 kts 82°
2026-04-22 19:46 59.74382 12.62286 35231 ft 410 kts 82°
2026-04-22 19:46 59.74773 12.73562 35217 ft 410 kts 82°
2026-04-22 19:47 59.75156 12.84833 35218 ft 411 kts 82°
2026-04-22 19:47 59.75534 12.96169 35220 ft 411 kts 82°
2026-04-22 19:48 59.75896 13.07506 35216 ft 412 kts 82°
2026-04-22 19:48 59.76250 13.18862 35214 ft 412 kts 82°
2026-04-22 19:49 59.76596 13.30227 35209 ft 413 kts 82°
2026-04-22 19:49 59.76932 13.41616 35208 ft 413 kts 82°
2026-04-22 19:50 59.77259 13.52998 35210 ft 414 kts 82°
2026-04-22 19:50 59.77575 13.64422 35214 ft 415 kts 82°
2026-04-22 19:51 59.77883 13.75845 35211 ft 415 kts 82°
2026-04-22 19:51 59.78182 13.87312 35207 ft 416 kts 82°
2026-04-22 19:52 59.78465 13.98777 35200 ft 416 kts 82°
2026-04-22 19:52 59.78740 14.10263 35199 ft 417 kts 82°
2026-04-22 19:53 59.79010 14.21747 35198 ft 417 kts 82°
2026-04-22 19:53 59.79272 14.33258 35196 ft 417 kts 82°
2026-04-22 19:54 59.79524 14.44772 35197 ft 418 kts 82°
2026-04-22 19:54 59.79763 14.56296 35194 ft 418 kts 82°
2026-04-22 19:55 59.79995 14.67828 35193 ft 418 kts 82°
2026-04-22 19:55 59.80210 14.79300 35190 ft 418 kts 82°
2026-04-22 19:56 59.80422 14.90917 35187 ft 418 kts 82°
2026-04-22 19:56 59.80621 15.02415 35163 ft 420 kts 82°
2026-04-22 19:57 59.80718 15.08228 34466 ft 424 kts 82°
2026-04-22 19:57 59.80815 15.14100 33198 ft 426 kts 82°
2026-04-22 19:57 59.80901 15.19881 32820 ft 408 kts 82°
2026-04-22 19:57 59.80977 15.25517 32437 ft 401 kts 82°
2026-04-22 19:58 59.81053 15.30961 31975 ft 398 kts 82°
2026-04-22 19:58 59.81131 15.36438 31530 ft 395 kts 82°
2026-04-22 19:58 59.81211 15.41872 31086 ft 393 kts 82°
2026-04-22 19:58 59.81288 15.47276 30645 ft 391 kts 82°
2026-04-22 19:59 59.81361 15.52660 30203 ft 389 kts 82°
2026-04-22 20:00 59.81732 15.84218 27703 ft 374 kts 81°
2026-04-22 20:00 59.81786 15.89367 27315 ft 372 kts 81°
2026-04-22 20:01 59.81838 15.94497 26932 ft 370 kts 81°
2026-04-22 20:01 59.81886 15.99601 26546 ft 368 kts 81°
2026-04-22 20:01 59.81932 16.04679 26156 ft 367 kts 81°
2026-04-22 20:01 59.81977 16.09723 25770 ft 365 kts 81°
2026-04-22 20:02 59.82021 16.14763 25375 ft 363 kts 81°
2026-04-22 20:02 59.82063 16.19783 24965 ft 362 kts 81°
2026-04-22 20:02 59.82101 16.24774 24559 ft 361 kts 80°
2026-04-22 20:02 59.82138 16.29753 24152 ft 360 kts 80°
2026-04-22 20:03 59.82170 16.34725 23736 ft 359 kts 80°
2026-04-22 20:03 59.82199 16.39686 23261 ft 358 kts 80°
2026-04-22 20:03 59.82227 16.44600 22833 ft 355 kts 80°
2026-04-22 20:03 59.82255 16.49488 22412 ft 352 kts 80°
2026-04-22 20:04 59.82281 16.54336 22108 ft 347 kts 80°
2026-04-22 20:04 59.82307 16.59129 21900 ft 348 kts 80°
2026-04-22 20:04 59.82340 16.64016 21087 ft 357 kts 81°
2026-04-22 20:04 59.82365 16.68910 20705 ft 353 kts 81°
2026-04-22 20:05 59.82382 16.73780 20280 ft 351 kts 81°
2026-04-22 20:05 59.82396 16.78617 19851 ft 349 kts 81°
2026-04-22 20:05 59.82408 16.83429 19425 ft 348 kts 81°
2026-04-22 20:05 59.82418 16.88235 18997 ft 346 kts 82°
2026-04-22 20:06 59.82428 16.93012 18573 ft 345 kts 82°
2026-04-22 20:06 59.82437 16.97774 18104 ft 345 kts 82°
2026-04-22 20:06 59.82431 17.02531 17656 ft 343 kts 83°
2026-04-22 20:06 59.82383 17.07260 17226 ft 342 kts 83°
2026-04-22 20:07 59.82311 17.11957 16792 ft 340 kts 84°
2026-04-22 20:07 59.82229 17.16646 16363 ft 338 kts 84°
2026-04-22 20:07 59.82147 17.21297 15939 ft 336 kts 84°
2026-04-22 20:07 59.82071 17.25927 15512 ft 334 kts 84°
2026-04-22 20:08 59.81999 17.30513 15092 ft 329 kts 84°
2026-04-22 20:08 59.81925 17.35008 14684 ft 321 kts 83°
2026-04-22 20:08 59.81852 17.39437 14283 ft 321 kts 83°
2026-04-22 20:08 59.81784 17.43858 13885 ft 317 kts 83°
2026-04-22 20:09 59.81714 17.48187 13450 ft 310 kts 83°
2026-04-22 20:09 59.81639 17.52419 13064 ft 303 kts 83°
2026-04-22 20:09 59.81562 17.56538 12692 ft 295 kts 83°
2026-04-22 20:09 59.81488 17.60575 12328 ft 289 kts 83°
2026-04-22 20:10 59.81417 17.64513 11973 ft 283 kts 83°
2026-04-22 20:10 59.81350 17.68353 11631 ft 281 kts 83°
2026-04-22 20:10 59.81283 17.72276 11278 ft 280 kts 83°
2026-04-22 20:10 59.81215 17.76063 10945 ft 278 kts 83°
2026-04-22 20:11 59.81147 17.79901 10600 ft 278 kts 84°
2026-04-22 20:11 59.81077 17.83749 10252 ft 279 kts 84°
2026-04-22 20:11 59.81004 17.87612 9900 ft 280 kts 84°
2026-04-22 20:11 59.80927 17.91477 9524 ft 281 kts 84°
2026-04-22 20:12 59.80847 17.95356 9170 ft 280 kts 85°
2026-04-22 20:12 59.80769 17.99212 8801 ft 280 kts 85°
2026-04-22 20:12 59.80717 18.01823 8581 ft 279 kts 85°
2026-04-22 20:12 59.80612 18.06919 8116 ft 279 kts 85°
2026-04-22 20:13 59.80531 18.10766 7762 ft 279 kts 85°
2026-04-22 20:13 59.80448 18.14611 7410 ft 279 kts 86°
2026-04-22 20:13 59.80362 18.18410 7245 ft 271 kts 86°
2026-04-22 20:13 59.80276 18.22095 7114 ft 263 kts 86°
2026-04-22 20:14 59.80192 18.25680 6954 ft 256 kts 86°
2026-04-22 20:14 59.80097 18.29243 6591 ft 263 kts 90°
2026-04-22 20:14 59.79592 18.32734 6372 ft 266 kts 111°
2026-04-22 20:14 59.78491 18.35694 5928 ft 269 kts 134°
2026-04-22 20:15 59.76928 18.37790 5320 ft 275 kts 149°
2026-04-22 20:15 59.75089 18.38857 4668 ft 281 kts 178°
2026-04-22 20:15 59.73210 18.38002 4029 ft 278 kts 214°
2026-04-22 20:15 59.71867 18.35443 3555 ft 260 kts 246°
2026-04-22 20:16 59.71017 18.32473 3470 ft 238 kts 249°
2026-04-22 20:16 59.70255 18.29643 3361 ft 228 kts 259°
2026-04-22 20:16 59.69894 18.26688 3051 ft 218 kts 268°
2026-04-22 20:16 59.69586 18.23742 2752 ft 218 kts 269°
2026-04-22 20:17 59.69261 18.20830 2524 ft 216 kts 268°
2026-04-22 20:17 59.68911 18.17964 2238 ft 211 kts 267°
2026-04-22 20:17 59.68566 18.15223 1948 ft 199 kts 267°
2026-04-22 20:17 59.68239 18.12627 1727 ft 186 kts 268°
2026-04-22 20:18 59.67937 18.10241 1454 ft 171 kts 267°
2026-04-22 20:18 59.67661 18.08041 1212 ft 159 kts 266°
2026-04-22 20:18 59.67407 18.06027 1003 ft 148 kts 266°
2026-04-22 20:18 59.67165 18.04088 822 ft 143 kts 263°
2026-04-22 20:19 59.66926 18.02187 598 ft 143 kts 262°
2026-04-22 20:19 59.66689 18.00294 495 ft 141 kts 263°
2026-04-22 20:19 59.66448 17.98382 259 ft 143 kts 261°
2026-04-22 20:19 59.66209 17.96513 130 ft 130 kts 261°
2026-04-22 20:20 59.66052 17.95259 120 ft 51 kts 255°
2026-04-22 20:20 59.65997 17.94877 120 ft 25 kts 247°
2026-04-22 20:20 59.65906 17.94613 117 ft 21 kts 230°
2026-04-22 20:20 59.65839 17.94463 120 ft 15 kts 227°
2026-04-22 20:21 59.65772 17.94318 118 ft 11 kts 227°
2026-04-22 20:21 59.65709 17.94197 119 ft 14 kts 224°
2026-04-22 20:21 59.65646 17.94053 117 ft 11 kts 237°
2026-04-22 20:21 59.65607 17.93899 116 ft 14 kts 253°
2026-04-22 20:22 59.65581 17.93692 115 ft 17 kts 256°
2026-04-22 20:22 59.65549 17.93445 117 ft 20 kts 254°
2026-04-22 20:22 59.65522 17.93228 117 ft 14 kts 257°
2026-04-22 20:22 59.65495 17.93031 116 ft 16 kts 253°
2026-04-22 20:23 59.65456 17.92805 117 ft 19 kts 243°
2026-04-22 20:23 59.65407 17.92635 115 ft 14 kts 234°
2026-04-22 20:23 59.65330 17.92499 116 ft 12 kts 208°
2026-04-22 20:23 59.65261 17.92561 116 ft 13 kts 121°
2026-04-22 20:24 59.65224 17.92719 114 ft 11 kts 136°
2026-04-22 20:24 59.65165 17.92724 115 ft 4 kts 189°
2026-04-22 20:24 59.65163 17.92723 115 ft 0 kts 189°